Weather in Hamilton

New Zealand     37°47′31″S   175°17′15″E
temp.,
°C
wind,
m/s
gust,
m/s
humid.,
%
clouds,
%
prec.,
mm/h
press.,
hPa
HPBL,
m
2 december, thu
thu201:00+16ese229293 0.1 102346
04:00+14ese3595100 0.0 1022100
07:00+14ese239496 0.0 1024100
10:00+19ene3475100 0.0 1024702
13:00+22ene2366100 0.1 10231129
16:00+22nw337165 0.6 1022807
19:00+19sw2389100 2.4 1022104
22:00+17s119183 0.2 102413
3 december, fri
fri301:00+16nne1194100 0.2 102414
04:00+15e2397100 0.0 102361
07:00+14ese1195100 0.0 102459
10:00+19e347377 0.0 1024659
13:00+23ene5760100 0.0 10231547
16:00+22ene676719 0.0 10221276
19:00+19ene5986100 0.6 1022509
22:00+16ene3893100 0.4 1024249
4 december, sat
sat401:00+14e2395100 0.4 1023100
04:00+14ese2397100 0.0 102267
07:00+16e3795100 0.0 1022322
10:00+19ene5884100 0.1 1022844
13:00+21ene5774100 0.6 10211105
16:00+22ene6770100 0.2 10201088
19:00+20ene587992 0.3 1020597
22:00+17ene3793100 0.1 1022238
5 december, sun
sun501:00+16e2896100 0.1 1022222
04:00+15e269694 0.0 1021136
07:00+17e279382 0.0 1022359
10:00+22nne476827 0.0 10221243
13:00+23nne586247 0.0 10211575
16:00+24n68585 0.1 10191330
19:00+22n486758 0.1 1020563
22:00+18nne368035 0.0 1021190
6 december, mon
mon601:00+17ne239366 0.1 102194
04:00+16ne239783 0.1 102089
07:00+16nne239754 0.1 1021109
10:00+21nw358177 0.5 1021814
13:00+18wnw379686 2.3 1021386
16:00+21w3583100 1.6 1020731
19:00+18sw238999 2.1 1021159
22:00+17sse1194100 0.5 102335